[[{"header":{"parameterUnit":"m.s-1","parameterCategory":1,"la1":30.2991,"la2":30.254,"lo1":-89.0895,"lo2":-89.0444,"dy":0.0017,"dx":0.0017,"nx":28,"ny":28,"refTime":"2024-07-03T09:00:00:Z","depth":0,"parameterNumber":2,"parameterNumberName":"U-component_of_WINDS"},"data":[0,0,0,0,0,0,0,0,0,0,0,0,0,0,0,0,0,0,0,0,0,0,0,0,0,0,0,0,0,0,0,0,0,0,0,0,0,0,0,0,0,0,0,0,0,0,0,0,0,0,0,0,0,0,0,0,0,0,0.1981,0.1983,0,0.2173,0.2175,0.2178,0.222,0.2219,0.2218,0.2216,0.2418,0.2424,0.2431,0,0,0,0,0,0,0,0,0,0,0,0,0,0.1655,0.166,0.1981,0.1984,0.1986,0.2173,0.2176,0.2178,0.2221,0.2219,0.2217,0.2216,0.2416,0.2423,0.2431,0,0,0,0,0,0,0,0,0,0,0,0,0,0.1816,0.1662,0.1981,0.203,0.2036,0.2172,0.2176,0.2179,0.2221,0.2219,0.2217,0.2215,0.2413,0.2423,0.2433,0.2535,0,0,0.2463,0.2467,0,0,0,0,0,0,0,0,0.1807,0.1828,0.202,0.2027,0.2034,0.2171,0.2134,0.2299,0.2222,0.2151,0.2216,0.2214,0.2338,0.2354,0.2394,0.2545,0.2553,0.2464,0.247,0.2474,0.2477,0,0,0,0,0,0,0,0.1796,0.182,0.2057,0.2023,0.2031,0.2043,0.2064,0.2166,0.2254,0.2157,0.216,0.2182,0.2341,0.2385,0.2399,0.2556,0.2464,0.2472,0.2479,0.2483,0.28,0.2802,0,0,0,0,0,0,0.1776,0.1811,0.2051,0.2063,0.1913,0.205,0.2074,0.2129,0.2253,0.2269,0.2184,0.2184,0.2369,0.2388,0.2407,0.2535,0.2474,0.2483,0.2489,0.2797,0.28,0.2803,0,0,0,0,0,0,0.1768,0.1797,0.2044,0.1938,0.197,0.2058,0.212,0.2134,0.2177,0.2273,0.2289,0.2212,0.2368,0.2393,0.2502,0.2542,0.2488,0.2497,0.2794,0.2798,0.2801,0.2791,0,0,0,0,0,0,0.1759,0.1794,0.1833,0.1938,0.1976,0.2135,0.2123,0.2139,0.2194,0.2195,0.2304,0.232,0.2368,0.2487,0.2512,0.2555,0.2505,0.2791,0.2796,0.28,0.2789,0.2794,0.2799,0,0,0,0,0,0.1747,0.1824,0.1835,0.1864,0.2027,0.2137,0.2159,0.2211,0.2197,0.2238,0.2299,0.2316,0.2533,0.2498,0.2527,0.2573,0.2789,0.2795,0.28,0.2786,0.2793,0.2799,0,0,0,0,0,0,0.1724,0.1839,0.1852,0.1966,0.2041,0.2144,0.2198,0.2217,0.23,0.2298,0.2361,0.2385,0.2491,0.2543,0.2502,0.2678,0.2661,0.2672,0.264,0.2648,0.2653,0.2639,0.2513,0,0,0,0,0,0.1731,0.181,0.1907,0.1998,0.2035,0.2109,0.216,0.2193,0.2275,0.2307,0.2377,0.2456,0.2542,0.2598,0.2682,0.2796,0.282,0.2841,0.2846,0.285,0.286,0.2923,0.2933,0.2821,0.2821,0.2821,0,0,0.1749,0.1821,0.1868,0.1995,0.2057,0.2139,0.2136,0.2223,0.2284,0.2321,0.2429,0.2482,0.2575,0.2686,0.2739,0.2733,0.2896,0.2857,0.286,0.2868,0.293,0.294,0.2949,0.2825,0.2824,0.2823,0,0,0.1822,0.1885,0.1966,0.2028,0.2122,0.2171,0.219,0.229,0.2326,0.2434,0.2463,0.2537,0.2685,0.2749,0.2801,0.2896,0.2915,0.2921,0.2949,0.301,0.3019,0.3027,0.3061,0.3072,0.293,0.293,0.293,0,0.1832,0.1955,0.2006,0.2091,0.2146,0.2181,0.2264,0.2322,0.2439,0.2477,0.2468,0.2651,0.2717,0.2843,0.2866,0.2907,0.2931,0.291,0.3013,0.3022,0.303,0.3063,0.3075,0.2931,0.2931,0.2931,0.2931,0,0.1962,0.2047,0.2101,0.2211,0.2272,0.2356,0.2421,0.2477,0.2504,0.2554,0.2663,0.2742,0.2842,0.2874,0.2903,0.3005,0.2998,0.3,0.2984,0.304,0.3072,0.3085,0.2931,0.2931,0.2931,0.2931,0,0,0.2028,0.2163,0.2183,0.2232,0.2337,0.2404,0.2489,0.2585,0.2631,0.271,0.2783,0.2905,0.2907,0.2966,0.3002,0.3055,0.3124,0.3051,0.3054,0.3062,0.3241,0.3239,0.3252,0.3137,0.3139,0.3142,0.3233,0,0.2114,0.2265,0.2313,0.244,0.2518,0.2551,0.2625,0.2698,0.2746,0.282,0.2874,0.2959,0.2955,0.2991,0.3045,0.3104,0.3161,0.3098,0.3206,0.321,0.3183,0.3269,0.3268,0.335,0.3246,0.3248,0.3249,0,0.2235,0.2314,0.2447,0.254,0.2575,0.2641,0.2732,0.2802,0.2885,0.2916,0.298,0.3011,0.3102,0.3079,0.3204,0.316,0.3207,0.3243,0.3247,0.326,0.3233,0.3285,0.3378,0.339,0.327,0.3268,0.3267,0,0.2269,0.2409,0.2506,0.2548,0.2659,0.2704,0.2753,0.2833,0.2888,0.2968,0.3003,0.3093,0.3143,0.3212,0.3266,0.3245,0.3387,0.3369,0.3416,0.3414,0.3446,0.3443,0.3548,0.3474,0.3474,0.3474,0.3474,0,0.236,0.2441,0.2523,0.2583,0.2674,0.2728,0.2817,0.2868,0.2939,0.301,0.3044,0.3111,0.3178,0.3254,0.3297,0.3394,0.3416,0.3444,0.3455,0.3442,0.3438,0.3474,0.347,0.3477,0.3477,0.3476,0.3475,0,0.2415,0.2473,0.2581,0.2677,0.2703,0.2765,0.2848,0.2908,0.2956,0.3045,0.3069,0.3146,0.3236,0.3297,0.3413,0.3442,0.3547,0.3557,0.3518,0.3524,0.3567,0.3562,0.37,0.3721,0.3632,0.3633,0.3634,0,0.2469,0.2532,0.2633,0.2682,0.273,0.2809,0.2864,0.292,0.2975,0.3073,0.3121,0.3213,0.3289,0.3432,0.3498,0.3587,0.3599,0.3641,0.3613,0.3597,0.36,0.3595,0.3602,0.3646,0.3646,0.3647,0.3647,0,0.256,0.2585,0.2662,0.2749,0.2812,0.2884,0.2955,0.2994,0.3062,0.3123,0.3214,0.3273,0.339,0.3481,0.3575,0.3626,0.3648,0.3655,0.3671,0.3658,0.3634,0.3647,0.3531,0.3652,0.3652,0.3651,0.3651,0.3651,0.2617,0.2673,0.2752,0.2837,0.2896,0.2961,0.3022,0.3077,0.3153,0.3252,0.328,0.3375,0.3455,0.3583,0.3636,0.3711,0.3708,0.373,0.3736,0.3741,0.3741,0.362,0.3729,0.3729,0.3729,0.3729,0.3729,0,0.2709,0.2761,0.2838,0.2936,0.3002,0.3014,0.3094,0.3149,0.3231,0.3303,0.3377,0.3481,0.3569,0.3641,0.3732,0.3778,0.3791,0.38,0.3798,0.3809,0.3739,0.3716,0.3789,0.3789,0.3789,0.3789,0.3789,0.3788,0.2765,0.2861,0.2895,0.302,0.3072,0.3164,0.3208,0.3269,0.3327,0.3441,0.3513,0.3559,0.3631,0.3727,0.3808,0.3827,0.3859,0.3866,0.3888,0.3821,0.3814,0.3808,0.3787,0.3873,0.3873,0.3952,0.3952,0.3953]},{"header":{"parameterUnit":"m.s-1","parameterCategory":1,"la1":30.2991,"la2":30.254,"lo1":-89.0895,"lo2":-89.0444,"dy":0.0017,"dx":0.0017,"nx":28,"ny":28,"refTime":"2024-07-03T09:00:00:Z","depth":0,"parameterNumber":3,"parameterNumberName":"V-component_of_WINDS"},"data":[0,0,0,0,0,0,0,0,0,0,0,0,0,0,0,0,0,0,0,0,0,0,0,0,0,0,0,0,0,0,0,0,0,0,0,0,0,0,0,0,0,0,0,0,0,0,0,0,0,0,0,0,0,0,0,0,0,0,3.0701,3.0701,0,3.0665,3.0665,3.0664,3.0633,3.0633,3.0633,3.0632,3.0593,3.0593,3.0592,0,0,0,0,0,0,0,0,0,0,0,0,0,3.0743,3.0742,3.0701,3.0701,3.0701,3.0665,3.0665,3.0664,3.0633,3.0633,3.0633,3.0632,3.0594,3.0593,3.0592,0,0,0,0,0,0,0,0,0,0,0,0,0,3.0718,3.0742,3.0702,3.0681,3.0679,3.0665,3.0665,3.0664,3.0634,3.0633,3.0633,3.0632,3.0594,3.0593,3.0592,3.0595,0,0,3.0588,3.0588,0,0,0,0,0,0,0,0,3.0719,3.0716,3.0684,3.0682,3.068,3.0653,3.0665,3.0641,3.0634,3.0651,3.0632,3.0632,3.0614,3.0611,3.0605,3.0593,3.0592,3.0588,3.0588,3.0587,3.0587,0,0,0,0,0,0,0,3.0721,3.0717,3.0687,3.0684,3.0681,3.0673,3.0669,3.066,3.0635,3.0649,3.0647,3.0643,3.0612,3.0606,3.0604,3.0591,3.0588,3.0587,3.0587,3.0586,3.0581,3.0582,0,0,0,0,0,0,3.0726,3.0719,3.0688,3.0686,3.0699,3.0673,3.0668,3.0662,3.0635,3.0631,3.0644,3.0642,3.0608,3.0605,3.0602,3.0605,3.0587,3.0586,3.0586,3.0581,3.0581,3.0582,0,0,0,0,0,0,3.0727,3.0723,3.069,3.0702,3.0697,3.0673,3.0666,3.0662,3.0656,3.0631,3.0626,3.0642,3.0608,3.0604,3.0598,3.0603,3.0586,3.0585,3.058,3.0581,3.0581,3.061,0,0,0,0,0,0,3.0728,3.0724,3.0725,3.0702,3.0696,3.0686,3.0667,3.0662,3.0654,3.0652,3.0629,3.0624,3.0607,3.0599,3.0596,3.0601,3.0584,3.0579,3.058,3.0581,3.0609,3.0612,3.0615,0,0,0,0,0,3.073,3.0734,3.0725,3.0722,3.0698,3.0686,3.0683,3.0664,3.0655,3.0656,3.064,3.0625,3.0603,3.0599,3.0595,3.06,3.0579,3.058,3.0581,3.0607,3.0611,3.0614,0,0,0,0,0,0,3.0757,3.0731,3.0721,3.0718,3.0705,3.0681,3.0681,3.0668,3.0657,3.0655,3.0631,3.0626,3.0622,3.061,3.0606,3.0602,3.0589,3.059,3.061,3.0614,3.0617,3.0619,3.0583,0,0,0,0,0,3.0763,3.0757,3.0733,3.0733,3.0727,3.0706,3.07,3.0686,3.0671,3.0665,3.0649,3.0635,3.0625,3.0619,3.0608,3.0607,3.0602,3.0609,3.0612,3.0614,3.0615,3.0614,3.0617,3.0586,3.0585,3.0585,0,0,3.0775,3.076,3.0757,3.0738,3.0726,3.072,3.0701,3.0694,3.0689,3.0664,3.0657,3.0645,3.0628,3.0624,3.0622,3.0614,3.0622,3.0616,3.0618,3.0617,3.0615,3.0618,3.0621,3.0586,3.0586,3.0586,0,0,3.0793,3.0781,3.0779,3.0768,3.0751,3.0737,3.0737,3.0716,3.0707,3.07,3.0681,3.0674,3.0658,3.0646,3.0638,3.0653,3.0639,3.0651,3.0666,3.0666,3.0668,3.067,3.0676,3.0678,3.0651,3.0651,3.0651,0,3.0809,3.0799,3.078,3.0775,3.0768,3.0746,3.0745,3.0735,3.0715,3.071,3.0702,3.0681,3.0668,3.0662,3.0666,3.066,3.0659,3.0653,3.0669,3.0671,3.0673,3.0678,3.068,3.0653,3.0653,3.0653,3.0652,0,3.0821,3.0814,3.0815,3.0797,3.079,3.0787,3.0767,3.0762,3.075,3.0736,3.073,3.0713,3.0699,3.0697,3.0684,3.0689,3.0685,3.0674,3.066,3.0678,3.0682,3.0684,3.0655,3.0655,3.0654,3.0654,0,0,3.0853,3.0827,3.0827,3.0819,3.08,3.0794,3.079,3.0777,3.0774,3.0761,3.0757,3.0744,3.0734,3.0725,3.0711,3.071,3.0724,3.0699,3.0698,3.0704,3.0729,3.0738,3.074,3.0715,3.0715,3.0715,3.073,0,3.0868,3.0861,3.0844,3.0841,3.0835,3.0815,3.0812,3.0799,3.0787,3.078,3.0766,3.0757,3.0744,3.0739,3.0738,3.0723,3.0729,3.0721,3.0711,3.071,3.0715,3.0742,3.0751,3.0766,3.0732,3.0732,3.0732,0,3.0884,3.0874,3.0871,3.0853,3.0849,3.0847,3.0834,3.0828,3.0813,3.0804,3.0795,3.078,3.0775,3.0763,3.0755,3.0751,3.0745,3.0738,3.0738,3.0736,3.0722,3.0741,3.077,3.0773,3.0735,3.0735,3.0735,0,3.0909,3.0894,3.0891,3.0885,3.0863,3.0862,3.0852,3.0838,3.0831,3.082,3.0816,3.0805,3.0798,3.0789,3.0772,3.0764,3.0766,3.0752,3.0759,3.0759,3.0759,3.076,3.0789,3.0757,3.0757,3.0756,3.0756,0,3.0927,3.0926,3.0902,3.09,3.0898,3.0879,3.0878,3.0867,3.0854,3.0849,3.0831,3.0827,3.0804,3.0797,3.0784,3.078,3.0777,3.077,3.0766,3.0771,3.0772,3.0767,3.0765,3.0757,3.0757,3.0757,3.0757,0,3.0953,3.0937,3.0932,3.0913,3.0908,3.0908,3.0891,3.0888,3.0876,3.087,3.0868,3.0847,3.0839,3.0821,3.0806,3.0797,3.0797,3.079,3.0802,3.0799,3.0807,3.0807,3.0833,3.0836,3.0803,3.0803,3.0803,0,3.0966,3.0965,3.0946,3.0942,3.0934,3.0927,3.0921,3.0903,3.0897,3.0882,3.0881,3.0871,3.0862,3.0849,3.0833,3.0822,3.0815,3.0825,3.0813,3.0819,3.0815,3.0816,3.0816,3.0828,3.0828,3.0829,3.0829,0,3.099,3.0982,3.0974,3.0965,3.0958,3.0949,3.0939,3.0937,3.0916,3.0911,3.0902,3.0895,3.0882,3.0872,3.086,3.085,3.0836,3.0833,3.0834,3.0839,3.0846,3.0843,3.0809,3.0832,3.0832,3.0832,3.0832,3.0831,3.1009,3.1008,3.0995,3.0987,3.0978,3.097,3.0967,3.0954,3.0947,3.0935,3.0924,3.0917,3.0903,3.0885,3.0876,3.087,3.0863,3.0864,3.0865,3.0865,3.0868,3.0848,3.0867,3.0867,3.0867,3.0867,3.0867,0,3.1033,3.1024,3.1017,3.1004,3.0998,3.0987,3.0976,3.0972,3.0966,3.0954,3.0947,3.0937,3.0928,3.0912,3.0901,3.09,3.0893,3.0897,3.0897,3.0895,3.0874,3.0875,3.0903,3.0903,3.0903,3.0903,3.0903,3.0903,3.1044,3.1041,3.1032,3.1025,3.1016,3.1009,3.1004,3.0996,3.0987,3.0978,3.097,3.096,3.0947,3.0936,3.0927,3.0923,3.092,3.0926,3.092,3.09,3.0897,3.0893,3.0894,3.0926,3.0926,3.0941,3.0942,3.0942]}]]